Location: Forst
(46.9333°N, 15.4333°E)
Time: 06:19:05
(UTC+00:00)

Cosmos 2360 Rocket - Pass Details

Date: 01 December 2020
Orbit: 834 x 845 km, 71.0° (Epoch: 18 January)

Event Time Altitude Azimuth Distance (km) Brightness Sun altitude
Rises 15:37:49 0° 270° (W) 3,381 6.6 -4.8°
Reaches altitude 10° 15:41:44 10° 297° (WNW) 2,450 5.2 -5.4°
Maximum altitude 15:44:19 13° 325° (NW) 2,234 4.5 -5.8°
Drops below altitude 10° 15:46:54 10° 353° (N) 2,455 4.4 -6.2°
Sets 15:50:52 0° 20° (NNE) 3,394 4.9 -6.8°
